TAP8823 LFTH-EGPF

Flight info

Callsign TAP8823
Flight time 2h 24m
Altitude 36000
Route JULEE J685 MRM UN854 MTL A6 DANBO A2 BUSIL DCT OKASI DCT MATID DCT KORIQ DCT KUNAV T421 BIG T420 TNT UN57 POL UN601 RIBEL
Aircraft A320/M-SDE3FGHIRWY/LB1

Departure

Time 2026-04-18 09:11
Airport Toulon-Hyères Airport (LFTH)

Arrival

Time 2026-04-18 11:36
Airport Glasgow Airport (EGPF)
Time Latitude Longitude Altitude Speed Heading
2026-04-18 08:42 43.09369 6.15774 14 ft 0 kts 81°
2026-04-18 09:02 43.09367 6.15754 14 ft 4 kts 82°
2026-04-18 09:02 43.09363 6.15718 16 ft 4 kts 86°
2026-04-18 09:02 43.09364 6.15682 16 ft 4 kts 109°
2026-04-18 09:03 43.09373 6.15663 14 ft 2 kts 189°
2026-04-18 09:03 43.09374 6.15663 14 ft 0 kts 191°
2026-04-18 09:05 43.09354 6.15657 14 ft 6 kts 193°
2026-04-18 09:05 43.09320 6.15646 13 ft 4 kts 194°
2026-04-18 09:05 43.09274 6.15609 15 ft 12 kts 222°
2026-04-18 09:06 43.09224 6.15543 13 ft 6 kts 224°
2026-04-18 09:06 43.09203 6.15515 13 ft 0 kts 224°
2026-04-18 09:07 43.09172 6.15471 11 ft 13 kts 227°
2026-04-18 09:07 43.09186 6.15359 10 ft 13 kts 314°
2026-04-18 09:07 43.09251 6.15272 11 ft 17 kts 315°
2026-04-18 09:07 43.09357 6.15125 11 ft 25 kts 315°
2026-04-18 09:08 43.09483 6.14953 11 ft 26 kts 315°
2026-04-18 09:08 43.09616 6.14771 10 ft 28 kts 315°
2026-04-18 09:08 43.09758 6.14578 9 ft 29 kts 315°
2026-04-18 09:08 43.09902 6.14380 11 ft 30 kts 314°
2026-04-18 09:09 43.10019 6.14222 12 ft 20 kts 315°
2026-04-18 09:09 43.10088 6.14112 10 ft 10 kts 290°
2026-04-18 09:09 43.10102 6.14110 12 ft 2 kts 119°
2026-04-18 09:09 43.10087 6.14125 10 ft 0 kts 131°
2026-04-18 09:10 43.09926 6.14345 11 ft 73 kts 135°
2026-04-18 09:11 43.09404 6.15061 15 ft 136 kts 135°
2026-04-18 09:11 43.08655 6.16090 363 ft 155 kts 134°
2026-04-18 09:11 43.07883 6.17122 1056 ft 156 kts 134°
2026-04-18 09:11 43.07072 6.18169 1604 ft 168 kts 135°
2026-04-18 09:12 43.06487 6.18923 1799 ft 181 kts 135°
2026-04-18 09:12 43.05519 6.20181 2065 ft 204 kts 136°
2026-04-18 09:12 43.04430 6.21602 2347 ft 229 kts 136°
2026-04-18 09:12 43.03214 6.23190 2746 ft 253 kts 136°
2026-04-18 09:13 43.01872 6.24820 3441 ft 262 kts 147°
2026-04-18 09:13 43.00189 6.25802 4259 ft 267 kts 169°
2026-04-18 09:13 42.98333 6.25822 5084 ft 271 kts 192°
2026-04-18 09:13 42.96596 6.24826 5903 ft 274 kts 216°
2026-04-18 09:14 42.95273 6.22949 6725 ft 277 kts 239°
2026-04-18 09:14 42.94597 6.20490 7495 ft 280 kts 263°
2026-04-18 09:14 42.94709 6.17840 8269 ft 283 kts 287°
2026-04-18 09:14 42.95573 6.15421 9055 ft 285 kts 303°
2026-04-18 09:15 42.96637 6.13125 9861 ft 288 kts 303°
2026-04-18 09:15 42.97694 6.10757 10452 ft 300 kts 297°
2026-04-18 09:15 42.98387 6.07951 10640 ft 324 kts 288°
2026-04-18 09:15 42.99029 6.04934 11105 ft 335 kts 288°
2026-04-18 09:16 42.99659 6.01883 11775 ft 340 kts 284°
2026-04-18 09:16 42.99934 5.98639 12478 ft 346 kts 275°
2026-04-18 09:16 43.00013 5.95333 13191 ft 350 kts 273°
2026-04-18 09:16 42.99905 5.91980 13887 ft 356 kts 268°
2026-04-18 09:17 42.99682 5.88595 14504 ft 359 kts 268°
2026-04-18 09:17 42.99414 5.85178 15132 ft 362 kts 266°
2026-04-18 09:17 42.99102 5.81749 15754 ft 365 kts 265°
2026-04-18 09:17 42.98764 5.78343 16366 ft 368 kts 265°
2026-04-18 09:18 42.98522 5.74863 16979 ft 368 kts 273°
2026-04-18 09:18 42.98789 5.71405 17576 ft 366 kts 286°
2026-04-18 09:18 42.99605 5.68118 18170 ft 365 kts 298°
2026-04-18 09:18 43.00919 5.65161 18721 ft 364 kts 309°
2026-04-18 09:19 43.02628 5.62603 19242 ft 365 kts 320°
2026-04-18 09:19 43.04659 5.60518 19767 ft 366 kts 329°
2026-04-18 09:19 43.06836 5.58696 20292 ft 368 kts 329°
2026-04-18 09:19 43.09028 5.56862 20819 ft 371 kts 329°
2026-04-18 09:20 43.11236 5.55011 21346 ft 373 kts 329°
2026-04-18 09:20 43.13457 5.53146 21867 ft 376 kts 329°
2026-04-18 09:20 43.15666 5.51288 22377 ft 378 kts 329°
2026-04-18 09:20 43.17924 5.49391 22889 ft 381 kts 328°
2026-04-18 09:21 43.20190 5.47484 23393 ft 384 kts 328°
2026-04-18 09:21 43.22471 5.45561 23846 ft 386 kts 328°
2026-04-18 09:21 43.24770 5.43619 24245 ft 389 kts 328°
2026-04-18 09:21 43.27077 5.41668 24641 ft 391 kts 328°
2026-04-18 09:22 43.29399 5.39706 25029 ft 393 kts 328°
2026-04-18 09:22 43.31736 5.37729 25420 ft 395 kts 328°
2026-04-18 09:22 43.34082 5.35747 25790 ft 397 kts 328°
2026-04-18 09:22 43.36445 5.33755 26153 ft 399 kts 329°
2026-04-18 09:23 43.38960 5.32102 26496 ft 403 kts 339°
2026-04-18 09:23 43.41630 5.30878 26845 ft 406 kts 340°
2026-04-18 09:23 43.44320 5.29663 27197 ft 408 kts 340°
2026-04-18 09:23 43.47027 5.28434 27541 ft 410 kts 340°
2026-04-18 09:24 43.49742 5.27196 27872 ft 412 kts 340°
2026-04-18 09:24 43.52471 5.25948 28202 ft 415 kts 340°
2026-04-18 09:24 43.55213 5.24689 28523 ft 417 kts 340°
2026-04-18 09:24 43.57943 5.23436 28834 ft 419 kts 340°
2026-04-18 09:25 43.60717 5.22164 29145 ft 421 kts 340°
2026-04-18 09:25 43.63508 5.20884 29446 ft 423 kts 340°
2026-04-18 09:25 43.66311 5.19594 29739 ft 425 kts 339°
2026-04-18 09:25 43.69124 5.18299 30030 ft 427 kts 339°
2026-04-18 09:26 43.71951 5.17000 30299 ft 429 kts 339°
2026-04-18 09:26 43.74798 5.15693 30511 ft 432 kts 339°
2026-04-18 09:26 43.77655 5.14380 30724 ft 434 kts 339°
2026-04-18 09:26 43.80524 5.13057 30960 ft 435 kts 339°
2026-04-18 09:27 43.83406 5.11723 31198 ft 436 kts 339°
2026-04-18 09:27 43.86246 5.10410 31523 ft 435 kts 339°
2026-04-18 09:27 43.89125 5.09080 31822 ft 435 kts 339°
2026-04-18 09:27 43.91999 5.07749 32130 ft 434 kts 339°
2026-04-18 09:28 43.94866 5.06419 32416 ft 434 kts 339°
2026-04-18 09:28 43.97730 5.05089 32709 ft 434 kts 339°
2026-04-18 09:28 44.00590 5.03760 33005 ft 434 kts 339°
2026-04-18 09:28 44.03452 5.02426 33299 ft 433 kts 339°
2026-04-18 09:29 44.06303 5.01096 33585 ft 433 kts 339°
2026-04-18 09:29 44.09160 4.99767 33895 ft 432 kts 339°
2026-04-18 09:29 44.12007 4.98443 34208 ft 432 kts 339°
2026-04-18 09:29 44.14862 4.97114 34452 ft 431 kts 339°
2026-04-18 09:30 44.17705 4.95787 34671 ft 431 kts 339°
2026-04-18 09:30 44.20513 4.94474 34902 ft 431 kts 339°
2026-04-18 09:30 44.23396 4.93123 35120 ft 431 kts 339°
2026-04-18 09:30 44.26200 4.91809 35334 ft 431 kts 339°
2026-04-18 09:31 44.29040 4.90472 35551 ft 431 kts 338°
2026-04-18 09:31 44.31889 4.89130 35758 ft 431 kts 338°
2026-04-18 09:31 44.34727 4.87796 35957 ft 430 kts 338°
2026-04-18 09:31 44.37566 4.86463 36129 ft 431 kts 338°
2026-04-18 09:32 44.43214 4.83804 36168 ft 426 kts 338°
2026-04-18 09:32 44.48825 4.81147 36171 ft 426 kts 338°
2026-04-18 09:33 44.54693 4.79820 36181 ft 433 kts 359°
2026-04-18 09:33 44.60615 4.81597 36180 ft 442 kts 20°
2026-04-18 09:34 44.66127 4.85374 36189 ft 444 kts 23°
2026-04-18 09:34 44.71671 4.89236 36186 ft 444 kts 23°
2026-04-18 09:35 44.77206 4.93097 36188 ft 444 kts 23°
2026-04-18 09:35 44.82748 4.96966 36192 ft 444 kts 23°
2026-04-18 09:36 44.88279 5.00832 36194 ft 444 kts 23°
2026-04-18 09:36 44.93808 5.04725 36205 ft 443 kts 23°
2026-04-18 09:37 44.99324 5.08615 36197 ft 443 kts 23°
2026-04-18 09:37 45.04847 5.12511 36203 ft 443 kts 23°
2026-04-18 09:38 45.10596 5.15376 36212 ft 435 kts
2026-04-18 09:38 45.16535 5.15651 36208 ft 428 kts 352°
2026-04-18 09:39 45.22492 5.14978 36207 ft 429 kts 352°
2026-04-18 09:39 45.28451 5.14298 36220 ft 429 kts 352°
2026-04-18 09:40 45.34413 5.13622 36217 ft 429 kts 352°
2026-04-18 09:40 45.40373 5.12946 36215 ft 429 kts 352°
2026-04-18 09:41 45.46331 5.12264 36213 ft 429 kts 352°
2026-04-18 09:41 45.52253 5.11600 36215 ft 430 kts 352°
2026-04-18 09:42 45.58214 5.10933 36210 ft 430 kts 352°
2026-04-18 09:42 45.64174 5.10256 36205 ft 430 kts 352°
2026-04-18 09:43 45.70140 5.09573 36212 ft 430 kts 352°
2026-04-18 09:43 45.76108 5.08862 36222 ft 430 kts 350°
2026-04-18 09:44 45.82044 5.07846 36220 ft 429 kts 348°
2026-04-18 09:44 45.87964 5.06676 36226 ft 429 kts 347°
2026-04-18 09:45 45.93618 5.04317 36218 ft 420 kts 330°
2026-04-18 09:45 45.98607 5.00068 36209 ft 417 kts 324°
2026-04-18 09:46 46.03525 4.95645 36210 ft 417 kts 324°
2026-04-18 09:46 46.08447 4.91214 36225 ft 417 kts 324°
2026-04-18 09:47 46.13337 4.86797 36223 ft 417 kts 324°
2026-04-18 09:47 46.18237 4.82339 36220 ft 417 kts 324°
2026-04-18 09:48 46.23144 4.77873 36225 ft 417 kts 323°
2026-04-18 09:48 46.28051 4.73403 36240 ft 417 kts 323°
2026-04-18 09:49 46.32866 4.68755 36234 ft 415 kts 320°
2026-04-18 09:49 46.37526 4.63816 36237 ft 415 kts 319°
2026-04-18 09:50 46.42168 4.58841 36229 ft 415 kts 320°
2026-04-18 09:50 46.46835 4.53920 36225 ft 415 kts 320°
2026-04-18 09:51 46.51513 4.49018 36250 ft 415 kts 320°
2026-04-18 09:51 46.56159 4.44137 36246 ft 415 kts 320°
2026-04-18 09:52 46.60829 4.39205 36240 ft 414 kts 320°
2026-04-18 09:52 46.65494 4.34281 36239 ft 414 kts 320°
2026-04-18 09:53 46.70147 4.29345 36232 ft 414 kts 319°
2026-04-18 09:53 46.74795 4.24408 36231 ft 413 kts 320°
2026-04-18 09:54 46.79445 4.19470 36230 ft 413 kts 319°
2026-04-18 09:54 46.84087 4.14520 36228 ft 413 kts 319°
2026-04-18 09:55 46.88723 4.09551 36229 ft 413 kts 319°
2026-04-18 09:55 46.93360 4.04585 36239 ft 413 kts 319°
2026-04-18 09:56 46.98002 3.99607 36226 ft 414 kts 319°
2026-04-18 09:56 47.02647 3.94612 36220 ft 414 kts 319°
2026-04-18 09:57 47.07254 3.89636 36219 ft 414 kts 319°
2026-04-18 09:57 47.11892 3.84615 36233 ft 414 kts 319°
2026-04-18 09:58 47.16530 3.79596 36225 ft 414 kts 319°
2026-04-18 09:58 47.21170 3.74570 36219 ft 414 kts 319°
2026-04-18 09:59 47.25802 3.69520 36220 ft 414 kts 318°
2026-04-18 10:00 47.31993 3.62758 36212 ft 414 kts 318°
2026-04-18 10:00 47.36598 3.57730 36226 ft 414 kts 318°
2026-04-18 10:01 47.41218 3.52663 36223 ft 414 kts 318°
2026-04-18 10:01 47.45842 3.47580 36216 ft 414 kts 318°
2026-04-18 10:02 47.50456 3.42503 36213 ft 413 kts 318°
2026-04-18 10:02 47.55066 3.37403 36230 ft 413 kts 318°
2026-04-18 10:03 47.59666 3.32306 36224 ft 413 kts 317°
2026-04-18 10:03 47.64275 3.27203 36217 ft 413 kts 318°
2026-04-18 10:04 47.68885 3.22097 36209 ft 413 kts 318°
2026-04-18 10:04 47.73491 3.16979 36206 ft 413 kts 317°
2026-04-18 10:05 47.78089 3.11845 36223 ft 413 kts 317°
2026-04-18 10:05 47.82690 3.06689 36213 ft 413 kts 317°
2026-04-18 10:06 47.87285 3.01536 36205 ft 413 kts 317°
2026-04-18 10:06 47.91877 2.96374 36201 ft 413 kts 317°
2026-04-18 10:07 47.96444 2.91237 36207 ft 414 kts 317°
2026-04-18 10:07 48.01041 2.86051 36216 ft 414 kts 317°
2026-04-18 10:08 48.05636 2.80838 36211 ft 414 kts 317°
2026-04-18 10:08 48.10581 2.76304 36207 ft 424 kts 331°
2026-04-18 10:09 48.16019 2.72824 36206 ft 425 kts 330°
2026-04-18 10:09 48.21455 2.69336 36223 ft 425 kts 330°
2026-04-18 10:10 48.26894 2.65815 36214 ft 425 kts 330°
2026-04-18 10:10 48.32331 2.62288 36211 ft 425 kts 330°
2026-04-18 10:11 48.37758 2.58751 36207 ft 425 kts 330°
2026-04-18 10:11 48.43191 2.55211 36243 ft 426 kts 330°
2026-04-18 10:12 48.48630 2.51663 36228 ft 426 kts 330°
2026-04-18 10:12 48.54067 2.48102 36213 ft 426 kts 330°
2026-04-18 10:13 48.59459 2.44558 36232 ft 426 kts 330°
2026-04-18 10:13 48.64897 2.40981 36247 ft 426 kts 330°
2026-04-18 10:14 48.70332 2.37406 36232 ft 426 kts 330°
2026-04-18 10:14 48.75761 2.33825 36228 ft 425 kts 329°
2026-04-18 10:15 48.81179 2.30220 36222 ft 425 kts 329°
2026-04-18 10:15 48.86607 2.26610 36221 ft 426 kts 329°
2026-04-18 10:16 48.92035 2.23005 36222 ft 426 kts 329°
2026-04-18 10:16 48.97460 2.19384 36239 ft 426 kts 329°
2026-04-18 10:17 49.02886 2.15754 36237 ft 426 kts 329°
2026-04-18 10:17 49.08310 2.12122 36259 ft 426 kts 329°
2026-04-18 10:18 49.13734 2.08476 36238 ft 426 kts 329°
2026-04-18 10:18 49.19163 2.04820 36230 ft 426 kts 329°
2026-04-18 10:19 49.24585 2.01147 36218 ft 426 kts 329°
2026-04-18 10:19 49.29973 1.97492 36240 ft 427 kts 329°
2026-04-18 10:20 49.35410 1.93817 36231 ft 427 kts 329°
2026-04-18 10:20 49.40843 1.90117 36222 ft 427 kts 329°
2026-04-18 10:21 49.46282 1.86421 36218 ft 427 kts 329°
2026-04-18 10:21 49.51708 1.82711 36255 ft 427 kts 329°
2026-04-18 10:22 49.57148 1.78990 36262 ft 428 kts 328°
2026-04-18 10:22 49.62424 1.74904 36251 ft 420 kts 321°
2026-04-18 10:23 49.67423 1.70238 36242 ft 420 kts 321°
2026-04-18 10:23 49.72440 1.65596 36237 ft 422 kts 324°
2026-04-18 10:24 49.77769 1.61625 36263 ft 426 kts 327°
2026-04-18 10:24 49.83099 1.57718 36254 ft 427 kts 327°
2026-04-18 10:25 49.88461 1.53772 36251 ft 427 kts 327°
2026-04-18 10:25 49.93822 1.49805 36249 ft 427 kts 327°
2026-04-18 10:26 49.99185 1.45830 36263 ft 427 kts 327°
2026-04-18 10:26 50.04556 1.41847 36256 ft 428 kts 327°
2026-04-18 10:27 50.09931 1.37854 36255 ft 428 kts 327°
2026-04-18 10:27 50.15310 1.33849 36271 ft 429 kts 327°
2026-04-18 10:28 50.20687 1.29811 36281 ft 429 kts 327°
2026-04-18 10:28 50.26072 1.25759 36270 ft 430 kts 327°
2026-04-18 10:29 50.31464 1.21717 36262 ft 430 kts 327°
2026-04-18 10:29 50.36860 1.17664 36259 ft 430 kts 327°
2026-04-18 10:30 50.42249 1.13584 36282 ft 430 kts 327°
2026-04-18 10:30 50.47640 1.09485 36272 ft 431 kts 327°
2026-04-18 10:31 50.52823 1.04934 36263 ft 421 kts 315°
2026-04-18 10:31 50.57405 0.99245 36258 ft 420 kts 315°
2026-04-18 10:32 50.61966 0.93593 36257 ft 420 kts 315°
2026-04-18 10:32 50.66557 0.87890 36302 ft 420 kts 315°
2026-04-18 10:33 50.71144 0.82166 36281 ft 421 kts 315°
2026-04-18 10:33 50.75733 0.76430 36273 ft 421 kts 315°
2026-04-18 10:34 50.80326 0.70696 36268 ft 421 kts 315°
2026-04-18 10:34 50.84917 0.64935 36262 ft 421 kts 315°
2026-04-18 10:35 50.89496 0.59164 36215 ft 421 kts 315°
2026-04-18 10:35 50.94073 0.53370 36151 ft 421 kts 315°
2026-04-18 10:36 50.98654 0.47579 36093 ft 421 kts 315°
2026-04-18 10:36 51.03228 0.41770 36060 ft 421 kts 315°
2026-04-18 10:37 51.07800 0.35954 36008 ft 421 kts 315°
2026-04-18 10:37 51.12342 0.30160 36000 ft 421 kts 315°
2026-04-18 10:38 51.16902 0.24318 36017 ft 421 kts 315°
2026-04-18 10:38 51.21466 0.18462 36044 ft 421 kts 315°
2026-04-18 10:39 51.26028 0.12603 36091 ft 421 kts 315°
2026-04-18 10:39 51.30608 0.06690 36147 ft 421 kts 314°
2026-04-18 10:40 51.35387 0.01299 36279 ft 428 kts 323°
2026-04-18 10:40 51.40515 -0.03543 36270 ft 428 kts 323°
2026-04-18 10:41 51.45649 -0.08410 36254 ft 429 kts 323°
2026-04-18 10:41 51.50781 -0.13290 36249 ft 429 kts 323°
2026-04-18 10:42 51.55911 -0.18184 36250 ft 429 kts 322°
2026-04-18 10:42 51.61039 -0.23100 36181 ft 429 kts 322°
2026-04-18 10:43 51.66172 -0.28033 36174 ft 429 kts 322°
2026-04-18 10:43 51.71301 -0.32976 36171 ft 429 kts 322°
2026-04-18 10:44 51.76427 -0.37931 36167 ft 429 kts 322°
2026-04-18 10:44 51.81553 -0.42893 36254 ft 429 kts 322°
2026-04-18 10:45 51.85813 -0.47026 36243 ft 430 kts 322°
2026-04-18 10:45 51.90937 -0.52007 36235 ft 429 kts 322°
2026-04-18 10:46 51.96058 -0.57013 36229 ft 429 kts 322°
2026-04-18 10:46 52.01179 -0.62021 36225 ft 429 kts 322°
2026-04-18 10:47 52.06297 -0.67038 36248 ft 429 kts 322°
2026-04-18 10:47 52.11409 -0.72064 36237 ft 430 kts 322°
2026-04-18 10:48 52.16524 -0.77103 36234 ft 430 kts 322°
2026-04-18 10:48 52.21635 -0.82157 36227 ft 430 kts 322°
2026-04-18 10:49 52.26741 -0.87218 36227 ft 430 kts 322°
2026-04-18 10:49 52.31849 -0.92300 36243 ft 430 kts 322°
2026-04-18 10:50 52.36957 -0.97390 36225 ft 430 kts 322°
2026-04-18 10:50 52.42062 -1.02489 36230 ft 430 kts 322°
2026-04-18 10:51 52.47170 -1.07613 36242 ft 430 kts 322°
2026-04-18 10:51 52.52276 -1.12753 36280 ft 431 kts 322°
2026-04-18 10:52 52.57392 -1.17896 36280 ft 431 kts 322°
2026-04-18 10:52 52.62508 -1.23058 36285 ft 431 kts 322°
2026-04-18 10:53 52.67590 -1.28207 36290 ft 432 kts 322°
2026-04-18 10:53 52.72700 -1.33413 36286 ft 432 kts 322°
2026-04-18 10:54 52.77810 -1.38625 36252 ft 432 kts 322°
2026-04-18 10:54 52.82921 -1.43841 36244 ft 432 kts 322°
2026-04-18 10:55 52.88041 -1.49078 36235 ft 432 kts 322°
2026-04-18 10:55 52.93155 -1.54322 36243 ft 432 kts 322°
2026-04-18 10:56 52.98256 -1.59582 36227 ft 432 kts 322°
2026-04-18 10:56 53.03350 -1.64862 36238 ft 431 kts 322°
2026-04-18 10:57 53.08826 -1.69131 36220 ft 439 kts 334°
2026-04-18 10:57 53.14558 -1.72664 36199 ft 439 kts 334°
2026-04-18 10:58 53.20288 -1.76209 36196 ft 439 kts 334°
2026-04-18 10:58 53.26017 -1.79771 36212 ft 439 kts 334°
2026-04-18 10:59 53.31743 -1.83345 36204 ft 439 kts 334°
2026-04-18 10:59 53.37460 -1.86932 36196 ft 439 kts 334°
2026-04-18 11:00 53.43173 -1.90529 36208 ft 438 kts 334°
2026-04-18 11:00 53.48888 -1.94135 36182 ft 438 kts 334°
2026-04-18 11:01 53.54597 -1.97738 36179 ft 438 kts 334°
2026-04-18 11:01 53.60303 -2.01352 36182 ft 438 kts 334°
2026-04-18 11:02 53.68868 -2.06804 36179 ft 439 kts 334°
2026-04-18 11:02 53.74578 -2.10454 36214 ft 438 kts 334°
2026-04-18 11:03 53.80249 -2.14226 36202 ft 437 kts 333°
2026-04-18 11:03 53.85878 -2.18124 36193 ft 437 kts 333°
2026-04-18 11:04 53.91497 -2.22016 36187 ft 436 kts 333°
2026-04-18 11:04 53.97121 -2.25876 36178 ft 436 kts 333°
2026-04-18 11:05 54.02645 -2.29914 36180 ft 432 kts 327°
2026-04-18 11:05 54.07908 -2.34838 36181 ft 432 kts 326°
2026-04-18 11:06 54.13175 -2.39778 36176 ft 432 kts 327°
2026-04-18 11:06 54.18442 -2.44731 36173 ft 432 kts 326°
2026-04-18 11:07 54.23702 -2.49695 36118 ft 433 kts 327°
2026-04-18 11:07 54.26343 -2.52186 35875 ft 433 kts 327°
2026-04-18 11:07 54.28972 -2.54667 35640 ft 430 kts 326°
2026-04-18 11:08 54.31588 -2.57138 35400 ft 428 kts 326°
2026-04-18 11:08 54.34186 -2.59600 35160 ft 425 kts 326°
2026-04-18 11:08 54.36766 -2.62052 34927 ft 423 kts 326°
2026-04-18 11:08 54.39326 -2.64490 34643 ft 419 kts 326°
2026-04-18 11:09 54.41870 -2.66911 34127 ft 416 kts 326°
2026-04-18 11:09 54.44394 -2.69320 33569 ft 413 kts 326°
2026-04-18 11:09 54.46893 -2.71712 33097 ft 408 kts 326°
2026-04-18 11:09 54.49367 -2.74082 32571 ft 405 kts 326°
2026-04-18 11:10 54.51818 -2.76432 32077 ft 401 kts 326°
2026-04-18 11:10 54.54245 -2.78762 31592 ft 398 kts 326°
2026-04-18 11:10 54.56651 -2.81077 31128 ft 394 kts 326°
2026-04-18 11:10 54.59033 -2.83373 30666 ft 390 kts 326°
2026-04-18 11:11 54.61391 -2.85647 30195 ft 387 kts 326°
2026-04-18 11:11 54.63730 -2.87902 29695 ft 382 kts 326°
2026-04-18 11:11 54.66037 -2.90123 29268 ft 377 kts 326°
2026-04-18 11:11 54.68312 -2.92316 28843 ft 371 kts 326°
2026-04-18 11:12 54.70548 -2.94481 28431 ft 367 kts 326°
2026-04-18 11:12 54.72761 -2.96637 28031 ft 363 kts 326°
2026-04-18 11:12 54.74951 -2.98774 27596 ft 360 kts 326°
2026-04-18 11:12 54.77120 -3.00888 27185 ft 356 kts 327°
2026-04-18 11:13 54.79262 -3.02978 26764 ft 352 kts 327°
2026-04-18 11:13 54.81358 -3.05021 26366 ft 348 kts 327°
2026-04-18 11:13 54.83463 -3.07076 25963 ft 346 kts 327°
2026-04-18 11:13 54.85559 -3.09129 25639 ft 346 kts 327°
2026-04-18 11:14 54.87654 -3.11184 25313 ft 345 kts 327°
2026-04-18 11:14 54.89741 -3.13236 24979 ft 343 kts 327°
2026-04-18 11:14 54.91808 -3.15272 24633 ft 341 kts 327°
2026-04-18 11:14 54.93868 -3.17302 24303 ft 339 kts 327°
2026-04-18 11:15 54.95915 -3.19318 23978 ft 337 kts 327°
2026-04-18 11:15 54.97957 -3.21326 23642 ft 335 kts 328°
2026-04-18 11:15 54.99979 -3.23314 23281 ft 332 kts 328°
2026-04-18 11:15 55.01977 -3.25285 22952 ft 330 kts 328°
2026-04-18 11:16 55.03967 -3.27252 22632 ft 328 kts 328°
2026-04-18 11:16 55.05952 -3.29215 22303 ft 328 kts 328°
2026-04-18 11:16 55.07936 -3.31179 21993 ft 327 kts 328°
2026-04-18 11:16 55.09905 -3.33130 21676 ft 325 kts 327°
2026-04-18 11:17 55.11863 -3.35075 21360 ft 322 kts 327°
2026-04-18 11:17 55.13805 -3.37006 21039 ft 321 kts 327°
2026-04-18 11:17 55.15740 -3.38931 20730 ft 319 kts 328°
2026-04-18 11:17 55.17670 -3.40859 20421 ft 320 kts 328°
2026-04-18 11:18 55.19597 -3.42787 20105 ft 317 kts 328°
2026-04-18 11:18 55.21521 -3.44711 19580 ft 320 kts 327°
2026-04-18 11:18 55.23463 -3.46653 19036 ft 323 kts 327°
2026-04-18 11:18 55.25420 -3.48610 18497 ft 325 kts 326°
2026-04-18 11:19 55.27392 -3.50584 17904 ft 327 kts 327°
2026-04-18 11:19 55.29373 -3.52568 17378 ft 328 kts 327°
2026-04-18 11:19 55.31339 -3.54538 16912 ft 325 kts 327°
2026-04-18 11:19 55.33301 -3.56504 16548 ft 321 kts 326°
2026-04-18 11:20 55.35226 -3.58437 16141 ft 318 kts 327°
2026-04-18 11:20 55.37150 -3.60378 15596 ft 321 kts 327°
2026-04-18 11:20 55.39095 -3.62343 15019 ft 324 kts 327°
2026-04-18 11:20 55.41045 -3.64314 14577 ft 322 kts 326°
2026-04-18 11:21 55.42981 -3.66274 14103 ft 321 kts 326°
2026-04-18 11:21 55.44934 -3.68253 13398 ft 325 kts 326°
2026-04-18 11:21 55.46871 -3.70211 12882 ft 325 kts 327°
2026-04-18 11:21 55.48823 -3.72183 12373 ft 322 kts 327°
2026-04-18 11:22 55.50762 -3.74145 11882 ft 320 kts 326°
2026-04-18 11:22 55.52679 -3.76094 11395 ft 316 kts 327°
2026-04-18 11:22 55.54579 -3.78030 10830 ft 315 kts 326°
2026-04-18 11:22 55.56498 -3.79987 10161 ft 320 kts 327°
2026-04-18 11:23 55.58419 -3.81948 9570 ft 318 kts 327°
2026-04-18 11:23 55.60316 -3.83890 9191 ft 310 kts 327°
2026-04-18 11:23 55.62140 -3.85754 9034 ft 296 kts 327°
2026-04-18 11:23 55.63895 -3.87547 8768 ft 287 kts 326°
2026-04-18 11:24 55.65599 -3.89293 8500 ft 278 kts 326°
2026-04-18 11:24 55.67272 -3.91006 8240 ft 270 kts 326°
2026-04-18 11:24 55.68874 -3.92645 7965 ft 262 kts 326°
2026-04-18 11:24 55.70500 -3.93943 7706 ft 260 kts 339°
2026-04-18 11:25 55.72283 -3.94586 7463 ft 255 kts 344°
2026-04-18 11:25 55.73986 -3.95144 7252 ft 247 kts 344°
2026-04-18 11:25 55.75645 -3.95689 7061 ft 239 kts 344°
2026-04-18 11:25 55.77272 -3.96232 6743 ft 237 kts 343°
2026-04-18 11:26 55.78887 -3.96777 6395 ft 236 kts 343°
2026-04-18 11:26 55.80494 -3.97314 6059 ft 234 kts 343°
2026-04-18 11:26 55.82084 -3.97841 5715 ft 231 kts 343°
2026-04-18 11:26 55.83662 -3.98368 5373 ft 230 kts 343°
2026-04-18 11:27 55.85200 -3.98884 5221 ft 219 kts 343°
2026-04-18 11:27 55.86666 -3.99367 5100 ft 209 kts 343°
2026-04-18 11:27 55.88068 -3.99816 4974 ft 200 kts 343°
2026-04-18 11:27 55.89406 -4.00232 4838 ft 191 kts 343°
2026-04-18 11:28 55.90276 -4.00500 4749 ft 185 kts 343°
2026-04-18 11:28 55.91504 -4.00873 4611 ft 177 kts 343°
2026-04-18 11:28 55.92707 -4.01230 4402 ft 174 kts 343°
2026-04-18 11:28 55.93891 -4.01620 4266 ft 171 kts 334°
2026-04-18 11:29 55.94887 -4.02670 4140 ft 166 kts 317°
2026-04-18 11:29 55.95767 -4.03983 4007 ft 165 kts 315°
2026-04-18 11:29 55.96625 -4.05335 3882 ft 165 kts 314°
2026-04-18 11:29 55.97479 -4.06693 3751 ft 164 kts 314°
2026-04-18 11:30 55.98331 -4.08055 3621 ft 164 kts 312°
2026-04-18 11:30 55.98858 -4.09784 3496 ft 162 kts 279°
2026-04-18 11:30 55.98904 -4.11808 3363 ft 164 kts 271°
2026-04-18 11:30 55.98847 -4.13849 3235 ft 164 kts 270°
2026-04-18 11:31 55.98755 -4.15865 3126 ft 162 kts 269°
2026-04-18 11:31 55.98656 -4.17883 3056 ft 163 kts 269°
2026-04-18 11:31 55.98560 -4.19890 3043 ft 159 kts 269°
2026-04-18 11:31 55.98384 -4.21855 3027 ft 164 kts 255°
2026-04-18 11:32 55.97729 -4.23561 2879 ft 171 kts 234°
2026-04-18 11:32 55.96912 -4.25088 2674 ft 170 kts 234°
2026-04-18 11:32 55.96103 -4.26603 2454 ft 167 kts 234°
2026-04-18 11:32 55.95327 -4.28060 2233 ft 161 kts 234°
2026-04-18 11:33 55.94567 -4.29489 2016 ft 156 kts 233°
2026-04-18 11:33 55.93836 -4.30860 1802 ft 149 kts 234°
2026-04-18 11:33 55.93131 -4.32186 1603 ft 145 kts 234°
2026-04-18 11:33 55.92445 -4.33475 1395 ft 140 kts 234°
2026-04-18 11:34 55.91784 -4.34715 1214 ft 135 kts 235°
2026-04-18 11:34 55.91139 -4.35905 1060 ft 135 kts 233°
2026-04-18 11:34 55.90483 -4.37162 851 ft 140 kts 232°
2026-04-18 11:34 55.89811 -4.38426 641 ft 140 kts 230°
2026-04-18 11:35 55.89140 -4.39656 466 ft 137 kts 230°
2026-04-18 11:35 55.88475 -4.40919 240 ft 140 kts 229°
2026-04-18 11:35 55.87805 -4.42185 48 ft 138 kts 231°
2026-04-18 11:35 55.87191 -4.43346 29 ft 113 kts 225°
2026-04-18 11:36 55.86780 -4.44102 29 ft 53 kts 224°
2026-04-18 11:36 55.86599 -4.44424 29 ft 28 kts 215°
2026-04-18 11:36 55.86445 -4.44530 29 ft 20 kts 195°
2026-04-18 11:36 55.86366 -4.44455 29 ft 15 kts 74°
2026-04-18 11:37 55.86430 -4.44322 29 ft 13 kts 46°
2026-04-18 11:37 55.86489 -4.44212 29 ft 11 kts 46°
2026-04-18 11:37 55.86540 -4.44118 29 ft 9 kts 46°
2026-04-18 11:37 55.86581 -4.44041 29 ft 9 kts 46°
2026-04-18 11:38 55.86624 -4.43961 29 ft 9 kts 46°
2026-04-18 11:38 55.86664 -4.43886 29 ft 9 kts 46°
2026-04-18 11:38 55.86705 -4.43811 29 ft 9 kts 46°
2026-04-18 11:38 55.86737 -4.43714 29 ft 10 kts 72°
2026-04-18 11:39 55.86709 -4.43614 29 ft 10 kts 161°
2026-04-18 11:39 55.86644 -4.43580 29 ft 9 kts 163°
2026-04-18 11:39 55.86584 -4.43549 29 ft 8 kts 163°
2026-04-18 11:39 55.86542 -4.43527 29 ft 3 kts 164°
2026-04-18 11:40 55.86521 -4.43516 29 ft 3 kts 164°
2026-04-18 11:40 55.86498 -4.43511 29 ft 4 kts 195°
2026-04-18 11:40 55.86485 -4.43561 29 ft 6 kts 255°
2026-04-18 11:40 55.86476 -4.43618 29 ft 3 kts 253°
2026-04-18 11:41 55.86475 -4.43621 29 ft 0 kts 253°